This demonstration page uses our WeatherBlox Daily Observations layout. Learn more.

Left ArrowRight Arrow

Hourly Observations for June 4, 2016

Temp ( °F °C ) Dew Point ( °F °C ) Humidity (%) Winds ( mph kmh ) Pressure ( in mb ) Visibility ( mi km ) Precip ( " mm )
12:07 am 00:07 Partly Cloudy 69 20.6 66 18.9 90 90 SSE 8 13 29.97 1015 9 14 0.00 0.00
12:44 am 00:44 Mostly Cloudy 70 21 66 19 88 88 S 9 15 29.94 1014 10 16 0.00 0.00
12:52 am 00:52 Mostly Cloudy 69 20.6 66 18.9 90 90 S 7 11 29.94 1014 10 16 0.00 0.00
12:59 am 00:59 Partly Cloudy 69 20.6 66 18.9 90 90 S 6 9 29.94 1014 10 16 0.00 0.00
1:22 am 01:22 Mostly Cloudy 70 21 66 19 88 88 S 6 9 29.94 1014 10 16 0.00 0.00
1:52 am 01:52 Cloudy 69 20.6 66 18.9 90 90 S 8 13 29.91 1013 10 16 0.00 0.00
2:08 am 02:08 Cloudy 70 21 66 19 88 88 S 7 11 29.91 1013 9 14 0.00 0.00
2:52 am 02:52 Cloudy 69 20.6 66 18.9 90 90 SSW 7 11 29.90 1013 8 13 0.00 0.00
3:43 am 03:43 Cloudy 69 20.6 66 18.9 90 90 SSW 7 11 29.91 1013 10 16 0.00 0.00
3:52 am 03:52 Mostly Cloudy 69 20.6 66 18.9 90 90 S 7 11 29.91 1013 10 16 0.00 0.00
4:52 am 04:52 Cloudy 69 20.6 66 18.9 90 90 Calm 29.93 1013 10 16 0.00 0.00
5:52 am 05:52 Clear 66 18.9 64 17.8 93 93 SSW 6 9 29.91 1013 9 14 0.00 0.00
6:37 am 06:37 Mostly Cloudy 68 20 66 18.9 93 93 WNW 5 7 29.91 1013 8 13 0.00 0.00
6:52 am 06:52 Cloudy 69 20.6 66 18.9 90 90 WNW 7 11 29.92 1013 9 14 0.00 0.00
7:18 am 07:18 Cloudy with Mist and Fog 68 20 66 19 94 94 WNW 9 15 29.91 1013 6 10 0.00 0.00
7:52 am 07:52 Mostly Cloudy 69 20.6 66 18.9 90 90 WNW 9 15 29.92 1013 10 16 0.00 0.00
8:08 am 08:08 Mostly Cloudy 70 21 64 18 83 83 NW 8 13 29.91 1013 10 16 0.00 0.00
8:52 am 08:52 Partly Cloudy 69 20.6 64 17.8 84 84 NNW 8 13 29.91 1013 10 16 0.00 0.00
9:52 am 09:52 Mostly Sunny 71 21.7 64 17.8 79 79 NNW 6 9 29.92 1013 10 16 0.00 0.00
10:52 am 10:52 Cloudy 72 22.2 63 17.2 73 73 WNW 5 7 29.93 1014 10 16 0.00 0.00
11:52 am 11:52 Sunny 76 24.4 63 17.2 64 64 VRB 3 6 29.93 1013 10 16 0.00 0.00
12:52 pm 12:52 Sunny 77 25 62 16.7 60 60 NW 6 9 29.91 1013 10 16 0.00 0.00
1:52 pm 13:52 Sunny 79 26.1 62 16.7 56 56 NW 8 13 29.89 1012 10 16 0.00 0.00
2:52 pm 14:52 Mostly Sunny 82 27.8 58 14.4 44 44 NW 8 13 29.87 1012 10 16 0.00 0.00
3:52 pm 15:52 Mostly Sunny 83 28.3 55 12.8 38 38 NNW 8 13 29.85 1011 10 16 0.00 0.00
4:52 pm 16:52 Mostly Sunny 81 27.2 56 13.3 42 42 WNW 9 15 29.84 1010 10 16 0.00 0.00
5:52 pm 17:52 Mostly Cloudy 80 26.7 59 15 49 49 NW 7 11 29.84 1010 10 16 0.00 0.00
6:52 pm 18:52 Sunny 79 26.1 57 13.9 47 47 NW 10 17 29.85 1011 10 16 0.00 0.00
7:52 pm 19:52 Sunny 76 24.4 55 12.8 48 48 NW 6 9 29.85 1011 10 16 0.00 0.00
8:52 pm 20:52 Clear 72 22.2 55 12.8 55 55 NW 6 9 29.86 1011 10 16 0.00 0.00
9:52 pm 21:52 Clear 70 21.1 55 12.8 59 59 WNW 5 7 29.87 1011 10 16 0.00 0.00
10:52 pm 22:52 Clear 69 20.6 55 12.8 61 61 Calm 29.88 1012 10 16 0.00 0.00
11:52 pm 23:52 Clear 65 18.3 55 12.8 70 70 Calm 29.88 1012 10 16 0.00 0.00

Powered by AerisWeather